Weather Roundup
Issued by NWS Springfield, MO

Home | Current Version | Previous Version | Text Only | Print | Product List | Glossary On
Versions: 1 2 3 4 5 6 7 8 9 10 11 12 13 14 15 16 17 18 19 20 21 22 23 24 25 26 27 28 29 30 31 32 33 34 35 36 37 38 39 40 41 42 43 44 45 46 47 48 49 50
000
NZUS99 KSGF 281759
HRRSGF

HOURLY WEATHER
NATIONAL WEATHER SERVICE SPRINGFIELD MO
1200 PM CST FRI NOV 28 2014

......SGF CWA......

CITY           SKY/WX    TMP DP  RH WIND       PRES   REMARKS
SPRINGFIELD    SUNNY     56  32  40 S18       30.01F
6HR MIN TEMP:  33; 6HR MAX TEMP:  56;

JOPLIN         SUNNY     59  32  36 S25G36    29.99F
6HR MIN TEMP:  41; 6HR MAX TEMP:  59;

WEST PLAINS    SUNNY     48  30  49 S14       30.12F
6HR MIN TEMP:  28; 6HR MAX TEMP:  49;

ROLLA          SUNNY     50  31  48 S22G28    30.00F
6HR MIN TEMP:  31; 6HR MAX TEMP:  50;

OSAGE BEACH    SUNNY     57  32  38 SW15G21   29.98F
BRANSON        MOSUNNY   57  32  38 SW13G20   30.08F

......SURROUNDING SGF CWA......

CITY           SKY/WX    TMP DP  RH WIND       PRES   REMARKS
CHANUTE        SUNNY     55  32  41 S26G33    29.94F
PARSONS        SUNNY     57  33  40 S16G25    29.98F
COFFEYVILLE    SUNNY     57  33  40 S21G30    29.98F
EMPORIA        SUNNY     60  32  34 S16       29.88F
SILOAM SPRINGS SUNNY     55  34  44 S22       30.09F
HARRISON AR    SUNNY     55  32  41 S9        30.09F
NEAR YELLVILLE SUNNY     54  30  40 S14       30.13F

......KANSAS AND MISSOURI......

CITY           SKY/WX    TMP DP  RH WIND       PRES   REMARKS
KANSAS CTY INT PTSUNNY   50  30  46 SW17      29.89F
DOWNTOWN KC    SUNNY     55  30  38 SW14      29.89F
COLUMBIA       SUNNY     52  31  44 SW15      29.97F
SEDALIA        SUNNY     54  31  41 SW21G29   29.94F
ST JOSEPH      SUNNY     50  30  46 S14       29.87F
ST LOUIS       MOSUNNY   46  32  58 S16G22    30.07F
SPIRIT OF STL  MOSUNNY   49  31  49 S8G17     30.04F
KIRKSVILLE     SUNNY     45  31  58 SW12      29.91F
WICHITA        MOSUNNY   56  33  42 S17       29.90F
TOPEKA         SUNNY     55  31  39 S10       29.89F
OLATHE         SUNNY     52  31  44 SW16G22   29.90F

......TENNESSEE......

CITY           SKY/WX    TMP DP  RH WIND       PRES   REMARKS
MEMPHIS        SUNNY     50  26  39 S15       30.29F
NASHVILLE      SUNNY     41  21  44 SE8       30.34F

......ARKANSAS.......

CITY           SKY/WX    TMP DP  RH WIND       PRES   REMARKS
FAYETTEVILLE   SUNNY     57  34  41 S21       30.09F
FT SMITH       SUNNY     56  35  45 NE9       30.15F
LITTLE ROCK    MOSUNNY   54  29  38 S12       30.26F

......OKLAHOMA.......

CITY           SKY/WX    TMP DP  RH WIND       PRES   REMARKS
TULSA          MOSUNNY   61  35  37 S18G26    30.03F
PONCA CITY     SUNNY     60  34  37 S12G21    29.96F
MCALESTER      MOSUNNY   60  37  42 S16G23    30.11F
OKLAHOMA CITY  MOSUNNY   62  36  37 S21G30    30.00F

......IOWA............

CITY           SKY/WX    TMP DP  RH WIND       PRES   REMARKS
DES MOINES     PTSUNNY   37  26  64 S9        29.86F WCI  30
QUAD CITIES    PTSUNNY   30  23  75 S7        29.99F WCI  23

......ILLINOIS........

CITY           SKY/WX    TMP DP  RH WIND       PRES   REMARKS
QUINCY         SUNNY     42  29  59 S13       29.97F
CHICAGO        CLOUDY    27  16  63 SE16      30.10F WCI  15




USA.gov is the U.S. government's official web portal to all federal, state and local government web resources and services.